Regional Weather Roundup
Issued by NWS

Home | Current Version | Previous Version | Graphics & Text | Print | Product List | Glossary On
Versions: 1 2 3 4 5 6 7 8 9 10 11 12 13 14 15 16 17 18 19 20 21 22 23 24 25 26 27 28 29 30 31 32 33 34 35 36 37 38 39 40 41 42 43 44 45 46 47 48 49 50
000
ASUS43 KDTX 210001
RWRMI
MICHIGAN HOURLY REGIONAL WEATHER ROUNDUP
NATIONAL WEATHER SERVICE DETROIT/PONTIAC MI
800 PM EDT SUN AUG 20 2017

NOTE: "FAIR" INDICATES FEW OR NO CLOUDS BELOW 12,000 FEET WITH NO
SIGNIFICANT WEATHER AND/OR OBSTRUCTION TO VISIBILITY.

MIZ047>049-052>055-059>063-066>070-074>076-081>083-210100-
SOUTHEAST LOWER MICHIGAN

CITY           SKY/WX    TMP DP  RH WIND       PRES   REMARKS
ADRIAN         CLOUDY    78  68  71 CALM      30.07S
6HR MIN TEMP:  78; 6HR MAX TEMP:  84;

ALMA           CLOUDY    74  66  74 CALM      30.05S
ANN ARBOR      CLEAR     77  64  64 S3        30.06S
BAD AXE        PTCLDY    72  63  72 CALM      30.06S
CARO           CLOUDY    71  64  80 CALM      30.05R
DETROIT CITY   CLEAR     79  61  53 S6        30.07R
6HR MIN TEMP:  79; 6HR MAX TEMP:  83;

DETROIT        MOCLDY    78  64  61 SE7       30.07S
6HR MIN TEMP:  78; 6HR MAX TEMP:  85;

FLINT          PTCLDY    76  64  66 CALM      30.05S
6HR MIN TEMP:  74; 6HR MAX TEMP:  83;

GROSSE ILE     CLEAR     76  65  67 S3        30.06S
6HR MIN TEMP:  76; 6HR MAX TEMP:  81;

HILLSDALE      CLOUDY    73  66  78 CALM      30.07S
HOWELL         PTCLDY    78  62  58 S5        30.06S
6HR MIN TEMP:  78; 6HR MAX TEMP:  84;


CITY           SKY/WX    TMP DP  RH WIND       PRES   REMARKS
JACKSON        CLOUDY    79  63  57 S3        30.07R
6HR MIN TEMP:  79; 6HR MAX TEMP:  85;

LAMBERTVILLE   PTCLDY    77  67  72 CALM      30.06S
6HR MIN TEMP:  77; 6HR MAX TEMP:  86;

LANSING        MOCLDY    79  62  56 CALM      30.05S
6HR MIN TEMP:  78; 6HR MAX TEMP:  86;

LAPEER         FAIR      77  63  61 CALM      30.06S
6HR MIN TEMP:  77; 6HR MAX TEMP:  84;

MASON          PTCLDY    77  65  65 CALM      30.06S
MONROE         PTCLDY    76  67  74 CALM      30.06S
6HR MIN TEMP:  76; 6HR MAX TEMP:  83;

MT. CLEMENS    PTCLDY    74  65  73 S8        30.05R
6HR MIN TEMP:  74; 6HR MAX TEMP:  83;

PONTIAC        MOCLDY    79  61  53 S5        30.06R
6HR MIN TEMP:  79; 6HR MAX TEMP:  84;

PORT HOPE        N/A     73  60  63 CALM      30.04R
6HR MIN TEMP:  73; 6HR MAX TEMP:  83;

PORT HURON     CLEAR     72  63  73 CALM      30.07R
TRI CITIES     PTCLDY    77  65  66 S3        30.04F
6HR MIN TEMP:  77; 6HR MAX TEMP:  82;

MIDLAND        FAIR      78  63  60 CALM      30.03S
6HR MIN TEMP:  78; 6HR MAX TEMP:  84;

TROY           CLEAR     82  60  47 S7        30.08R
SAGINAW HB     PTCLDY    73  61  64 CALM      30.04S
$$
MIZ043>046-050>051-056>058-064>065-071>073-077>080-210100-
SOUTHWEST LOWER MICHIGAN

CITY           SKY/WX    TMP DP  RH WIND       PRES   REMARKS
BATTLE CREEK   CLOUDY    81  63  54 S5        30.06S
6HR MIN TEMP:  81; 6HR MAX TEMP:  86;

BENTON HARBOR  PTCLDY    82  64  54 SE3       30.03S
6HR MIN TEMP:  82; 6HR MAX TEMP:  89;

BIG RAPIDS     PTCLDY    73  63  71 CALM      30.04R
6HR MIN TEMP:  73; 6HR MAX TEMP:  80;

COLDWATER      CLOUDY    78  67  68 CALM      30.07R
6HR MIN TEMP:  78; 6HR MAX TEMP:  86;

FREMONT        FAIR      75  65  70 CALM      30.03S
HOLLAND        CLOUDY    78  64  61 CALM      30.03F
6HR MIN TEMP:  78; 6HR MAX TEMP:  84;

GRAND RAPIDS   MOCLDY    79  64  60 S3        30.04R
6HR MIN TEMP:  79; 6HR MAX TEMP:  84;

IONIA          FAIR      76  62  60 CALM      30.04S
6HR MIN TEMP:  76; 6HR MAX TEMP:  84;

KALAMAZOO      CLOUDY    82  59  45 SW6       30.05S
6HR MIN TEMP:  82; 6HR MAX TEMP:  88;

LUDINGTON      CLOUDY    74  61  63 S5        30.01R
6HR MIN TEMP:  74; 6HR MAX TEMP:  78;

MARSHALL       CLOUDY    78  64  61 CALM      30.06S
6HR MIN TEMP:  78; 6HR MAX TEMP:  86;

MOUNT PLEASANT CLOUDY    75  66  71 CALM      30.03S
6HR MIN TEMP:  75; 6HR MAX TEMP:  85;

MUSKEGON       CLOUDY    77  62  59 S5        30.03R
6HR MIN TEMP:  77; 6HR MAX TEMP:  83;

SOUTH HAVEN    MOCLDY    78  69  75 CALM      30.03S
$$
MIZ016>042-210100-
NORTHERN LOWER MICHIGAN

CITY           SKY/WX    TMP DP  RH WIND       PRES   REMARKS
ALPENA         PTCLDY    78  63  59 SW6       30.00R
6HR MIN TEMP:  78; 6HR MAX TEMP:  85;

BEAVER ISLAND  MOCLDY    73  62  67 SW15      29.95S
6HR MIN TEMP:  73; 6HR MAX TEMP:  78;

BELLAIRE       PTCLDY    76  60  56 S3        29.98S
6HR MIN TEMP:  76; 6HR MAX TEMP:  81;

CADILLAC       CLOUDY    75  61  61 S7        30.03F
CHARLEVOIX     PTCLDY    75  61  60 S8        29.99S
6HR MIN TEMP:  75; 6HR MAX TEMP:  80;

FRANKFORT      CLOUDY    75  63  66 S3        29.99S
GAYLORD        CLOUDY    73  61  65 SW9       30.01F
6HR MIN TEMP:  73; 6HR MAX TEMP:  79;

GRAYLING       MOCLDY    74  60  60 S7        30.03S
6HR MIN TEMP:  74; 6HR MAX TEMP:  81;

HARBOR SPRINGS PTCLDY    74  61  63 SW6       29.96S
HOUGHTON LAKE  PTCLDY    74  62  66 S7        30.04S
6HR MIN TEMP:  74; 6HR MAX TEMP:  81;

MANISTEE       CLOUDY    75  64  68 S5        30.00R
OSCODA         PTCLDY    76  61  59 S6        30.02R
6HR MIN TEMP:  76; 6HR MAX TEMP:  85;

PELLSTON       PTCLDY    76  63  64 S6        29.97S
6HR MIN TEMP:  76; 6HR MAX TEMP:  82;

ROGERS CITY    PTCLDY    76  63  63 SW5       29.99S
TRAVERSE CITY  CLOUDY    78  61  55 VRB5      29.97S
6HR MIN TEMP:  77; 6HR MAX TEMP:  83;

$$
MIZ007>008-015-210100-
EASTERN UPPER MICHIGAN

CITY           SKY/WX    TMP DP  RH WIND       PRES   REMARKS
KINROSS        CLOUDY    73  61  65 SW7       29.95S
6HR MIN TEMP:  73; 6HR MAX TEMP:  80;

MACKINAC ISLAN PTCLDY    74  63  69 SW6       29.96S
6HR MIN TEMP:  72; 6HR MAX TEMP:  74;

NEWBERRY       MOCLDY    70  65  84 SW12G17   29.94R
6HR MIN TEMP:  70; 6HR MAX TEMP:  77;

S. S. MARIE    MOCLDY    74  59  59 S7        29.94S
6HR MIN TEMP:  74; 6HR MAX TEMP:  81;

MUNISING         N/A     77  67  71 S9        29.88R
6HR MIN TEMP:  77; 6HR MAX TEMP:  82;

$$
MIZ004>006-011>014-085-210100-
CENTRAL UPPER MICHIGAN

CITY           SKY/WX    TMP DP  RH WIND       PRES   REMARKS
MANISTIQUE     CLOUDY    68  62  81 S8G16     29.94R
6HR MIN TEMP:  68; 6HR MAX TEMP:  73;

ESCANABA       CLEAR     74  68  81 S14G20    29.91S
6HR MIN TEMP:  74; 6HR MAX TEMP:  78;

MENOMINEE      CLEAR     77  69  76 SW8       29.94
6HR MIN TEMP:  77; 6HR MAX TEMP:  79;

SAWYER-GWINN   CLEAR     77  66  69 SW13      29.90S
$$
MIZ001>003-009>011-084-210100-
WESTERN UPPER MICHIGAN

CITY           SKY/WX    TMP DP  RH WIND       PRES   REMARKS
IRON MOUNTAIN  CLEAR     80  64  58 SW6       29.91R
6HR MIN TEMP:  80; 6HR MAX TEMP:  83;

HOUGHTON       PTCLDY    71  62  73 W16       29.89R
6HR MIN TEMP:  71; 6HR MAX TEMP:  82;

COPPER HARBOR    N/A     74  62  66 NW9G17    29.85R
6HR MIN TEMP:  69; 6HR MAX TEMP:  82;

IRONWOOD       CLOUDY    72  66  81 W3        29.94R
6HR MIN TEMP:  72; 6HR MAX TEMP:  81;

$$

ABBREVIATIONS USED IN REMARKS
   TC - TEMPERATURE IN CELSIUS
  WCI - WIND CHILL INDEX
   HX - HEAT INDEX
  VSB - VISIBILITY





USA.gov is the U.S. government's official web portal to all federal, state and local government web resources and services.